This demonstration page uses our WeatherBlox Daily Observations layout. Learn more.

Left ArrowRight Arrow

39.51506, -84.39828

Hourly Observations for May 31, 2017

Temp ( °F °C ) Dew Point ( °F °C ) Humidity (%) Winds ( mph kmh ) Pressure ( in mb ) Visibility ( mi km ) Precip ( " mm )
12:15 am 00:15 Clear 55 12.5 48 8.8 78 78 N N/A 30.03 1017 10 16 N/A
12:35 am 00:35 Clear 55 12.7 48 8.9 78 78 N N/A 30.03 1017 10 16 N/A
12:55 am 00:55 Clear 55 12.5 48 8.9 79 79 N N/A 30.03 1017 10 16 N/A
1:15 am 01:15 Clear 55 12.5 48 9.1 80 80 N N/A 30.03 1017 10 16 N/A
1:35 am 01:35 Clear 55 12.5 49 9.2 80 80 N N/A 30.03 1017 10 16 N/A
1:55 am 01:55 Clear 55 12.5 49 9.2 80 80 N N/A 30.03 1017 10 16 N/A
2:35 am 02:35 Clear 55 12.5 49 9.3 81 81 N N/A 30.03 1017 10 16 N/A
2:55 am 02:55 Clear 55 12.5 47 8.5 77 77 N N/A 30.03 1017 10 16 N/A
3:15 am 03:15 Clear 55 12.5 49 9.2 80 80 N N/A 30.03 1017 10 16 N/A
3:35 am 03:35 Clear 54 12.2 49 9.2 82 82 N N/A 30.03 1017 10 16 N/A
3:55 am 03:55 Clear 55 12.5 49 9.5 82 82 N N/A 30.03 1017 10 16 N/A
4:15 am 04:15 Clear 53 11.9 48 9 83 83 N N/A 30.03 1017 10 16 N/A
4:35 am 04:35 Partly Cloudy 55 12.5 48 8.8 78 78 N N/A 30.03 1017 10 16 N/A
4:55 am 04:55 Partly Cloudy 55 12.5 48 8.9 79 79 N N/A 30.03 1017 10 16 N/A
5:15 am 05:15 Mostly Cloudy 55 12.5 48 9 79 79 S 6 9 30.06 1018 10 16 N/A
5:35 am 05:35 Cloudy 57 13.8 49 9.3 74 74 S 3 6 30.06 1018 10 16 N/A
5:55 am 05:55 Cloudy with Light Rain 60 15.3 48 8.8 65 65 SW 14 22 30.06 1018 10 16 N/A
6:15 am 06:15 Cloudy with Rain 60 15.3 49 9.5 69 69 S 6 9 30.06 1018 10 16 N/A
6:35 am 06:35 Partly Cloudy 57 14 49 9.4 74 74 SSW 5 7 30.06 1018 10 16 N/A
6:55 am 06:55 Sunny 57 13.8 50 9.9 78 78 NW 3 6 30.06 1018 10 16 N/A
7:15 am 07:15 Sunny 60 15.3 53 11.5 78 78 N N/A 30.06 1018 10 16 N/A
7:35 am 07:35 Sunny 60 15.3 52 11.1 76 76 S 3 6 30.06 1018 10 16 N/A
7:55 am 07:55 Sunny 62 16.5 52 11 70 70 S 5 7 30.03 1017 10 16 N/A
8:15 am 08:15 Sunny 63 17.1 52 10.9 67 67 S 3 6 30.03 1017 10 16 N/A
8:35 am 08:35 Sunny 67 19.2 54 12.2 64 64 S 7 11 30.03 1017 10 16 N/A
8:55 am 08:55 Sunny 69 20.8 55 12.6 60 60 S 6 9 30.03 1017 10 16 N/A
9:15 am 09:15 Sunny 69 20.8 52 11 54 54 SSW 3 6 30.00 1016 10 16 N/A
9:35 am 09:35 Sunny 69 20.8 52 11 54 54 SSW 8 13 30.00 1016 10 16 N/A
9:55 am 09:55 Sunny 69 20.8 52 10.9 53 53 SSW 8 13 30.00 1016 10 16 N/A
10:15 am 10:15 Partly Cloudy 72 22 53 11.5 51 51 SSW 8 13 30.00 1016 10 16 N/A
10:35 am 10:35 Partly Cloudy 74 23.6 54 12.2 49 49 SW 10 17 30.00 1016 10 16 N/A
10:55 am 10:55 Sunny 74 23.6 53 11.9 48 48 SW 13 20 30.00 1016 10 16 N/A
11:15 am 11:15 Sunny 74 23.6 53 11.8 48 48 SSW 8 13 30.00 1016 10 16 N/A
11:35 am 11:35 Sunny 74 23.6 54 12.1 49 49 S 8 13 30.00 1016 10 16 N/A
11:55 am 11:55 Sunny 74 23.6 52 11.2 46 46 S 9 15 30.00 1016 10 16 N/A
12:15 pm 12:15 Sunny 75 23.8 52 11 45 45 SSW 10 17 30.00 1016 10 16 N/A
12:35 pm 12:35 Sunny 77 25 53 11.6 43 43 SW 7 11 30.00 1016 10 16 N/A
12:55 pm 12:55 Sunny 77 25.1 50 10.1 39 39 SW 7 11 30.00 1016 10 16 N/A
1:15 pm 13:15 Sunny 77 25.1 50 9.8 38 38 SW 10 17 30.00 1016 10 16 N/A
1:35 pm 13:35 Sunny 77 25.1 50 10 39 39 SW 7 11 30.00 1016 10 16 N/A
1:55 pm 13:55 Sunny 80 26.4 49 9.3 34 34 SW 7 11 29.97 1015 10 16 N/A
2:15 pm 14:15 Partly Cloudy 77 25.2 46 8 34 34 WSW 12 19 29.97 1015 10 16 N/A
2:35 pm 14:35 Mostly Cloudy 78 25.3 43 5.9 29 29 WSW 8 13 29.97 1015 10 16 N/A
2:55 pm 14:55 Partly Cloudy 80 26.5 43 6.1 27 27 WSW 13 20 29.97 1015 10 16 N/A
3:15 pm 15:15 Partly Cloudy 77 25.1 38 3.4 24 24 WSW 18 30 29.97 1015 10 16 N/A
3:35 pm 15:35 Partly Cloudy 80 26.5 40 4.5 24 24 SW 14 22 29.97 1015 10 16 N/A
3:55 pm 15:55 Partly Cloudy 80 26.5 38 3.6 23 23 W 14 22 29.97 1015 10 16 N/A
4:15 pm 16:15 Partly Cloudy 78 25.8 38 3.5 24 24 W 15 24 29.97 1015 10 16 N/A
4:35 pm 16:35 Partly Cloudy 80 26.5 39 4 23 23 WSW 21 33 29.97 1015 10 16 N/A
4:55 pm 16:55 Partly Cloudy 80 26.5 40 4.3 24 24 WSW 14 22 29.94 1014 10 16 N/A
5:15 pm 17:15 Partly Cloudy 79 26.3 42 5.3 26 26 W 10 17 29.94 1014 10 16 N/A
5:35 pm 17:35 Mostly Cloudy 77 25.2 39 3.8 25 25 W 15 24 29.94 1014 10 16 N/A
5:55 pm 17:55 Partly Cloudy 80 26.5 39 3.8 23 23 WSW 15 24 29.94 1014 10 16 N/A
6:15 pm 18:15 Partly Cloudy 80 26.5 38 3.1 22 22 W 15 24 29.94 1014 10 16 N/A
6:35 pm 18:35 Sunny 80 26.5 38 3.4 23 23 W 13 20 29.94 1014 10 16 N/A
6:55 pm 18:55 Partly Cloudy 78 25.8 38 3.3 23 23 WSW 12 19 29.94 1014 10 16 N/A
7:15 pm 19:15 Partly Cloudy 77 25.1 36 2.2 22 22 W 8 13 29.94 1014 10 16 N/A
7:35 pm 19:35 Partly Cloudy 77 25.1 36 2.2 22 22 W 10 17 29.97 1015 10 16 N/A
8:15 pm 20:15 Partly Cloudy 74 23.6 34 1.3 23 23 W 8 13 29.97 1015 10 16 N/A
8:35 pm 20:35 Partly Cloudy 74 23.6 37 2.5 25 25 W 6 9 29.97 1015 10 16 N/A
8:50 pm 20:50 Partly Cloudy 73 22.9 40 4.3 30 30 W 6 9 29.97 1015 10 16 N/A
9:15 pm 21:15 Partly Cloudy 69 20.8 44 6.5 40 40 W 3 6 29.97 1015 10 16 N/A
9:35 pm 21:35 Partly Cloudy 64 17.9 49 9.6 59 59 N N/A 29.97 1015 10 16 N/A
9:55 pm 21:55 Partly Cloudy 63 17.3 48 8.9 58 58 N N/A 30.00 1016 10 16 N/A
10:15 pm 22:15 Partly Cloudy 62 16.7 49 9.7 64 64 N N/A 30.00 1016 10 16 N/A
10:35 pm 22:35 Partly Cloudy 60 15.8 49 9.6 67 67 N N/A 30.00 1016 10 16 N/A
10:55 pm 22:55 Partly Cloudy 60 15.5 49 9.3 67 67 N N/A 30.00 1016 10 16 N/A
11:15 pm 23:15 Partly Cloudy 60 15.3 50 9.9 70 70 N N/A 30.06 1018 10 16 N/A
11:35 pm 23:35 Clear 60 15.3 49 9.4 68 68 N N/A 30.06 1018 10 16 N/A
11:55 pm 23:55 Clear 60 15.3 49 9.6 69 69 N N/A 30.06 1018 10 16 N/A

Powered by AerisWeather